Hourly Weather Allepuz

Today, 6 March, Saturday

Time Temperature Precipitation Wind Pressure Humidity
00:00 +3°C° 0 mm 1 mps 635 mmHg 91%
01:00 +2°C° 0 mm 1 mps 635 mmHg 92%
02:00 +2°C° 0 mm 1 mps 635 mmHg 93%
03:00 +2°C° 0 mm 1 mps 635 mmHg 93%
04:00 +2°C° 0 mm 1 mps 635 mmHg 93%
05:00 +1°C° 0 mm 1 mps 635 mmHg 93%
06:00 +1°C° 0 mm 1 mps 636 mmHg 93%
07:00 +2°C° 0 mm 1 mps 636 mmHg 87%
08:00 +4°C° 0 mm 1 mps 637 mmHg 81%
09:00 +5°C° 0 mm 1 mps 638 mmHg 75%
10:00 +5°C° 0 mm 2 mps 638 mmHg 66%
11:00 +5°C° 0 mm 3 mps 638 mmHg 57%
12:00 +8°C° 0 mm 3 mps 639 mmHg 49%
13:00 +8°C° 0 mm 3 mps 639 mmHg 49%
14:00 +7°C° 0 mm 4 mps 638 mmHg 50%
15:00 +7°C° 0 mm 4 mps 638 mmHg 51%
16:00 +5°C° 0 mm 3 mps 637 mmHg 58%
17:00 +4°C° 0 mm 3 mps 637 mmHg 66%
18:00 +4°C° 0 mm 2 mps 636 mmHg 74%
19:00 +3°C° 0 mm 2 mps 637 mmHg 79%
20:00 +2°C° 0 mm 2 mps 637 mmHg 84%
21:00 +1°C° 0 mm 2 mps 637 mmHg 90%
22:00 +1°C° 0 mm 2 mps 637 mmHg 89%
23:00 +1°C° 0 mm 2 mps 637 mmHg 89%

Tomorrow, 7 March, Sunday

Time Temperature Precipitation Wind Pressure Humidity
00:00 -1°C° 0 mm 2 mps 636 mmHg 88%
01:00 +1°C° 0 mm 1 mps 636 mmHg 86%
02:00 +1°C° 0 mm 1 mps 636 mmHg 84%
03:00 +1°C° 0 mm 1 mps 635 mmHg 82%
04:00 +1°C° 0 mm 1 mps 635 mmHg 84%
05:00 0°C° 0 mm 1 mps 635 mmHg 86%
06:00 0°C° 0 mm 1 mps 635 mmHg 88%
07:00 +1°C° 0 mm 1 mps 635 mmHg 82%
08:00 +3°C° 0 mm 1 mps 636 mmHg 76%
09:00 +4°C° 0 mm 1 mps 636 mmHg 70%
10:00 +5°C° 0 mm 1 mps 636 mmHg 68%
11:00 +6°C° 0 mm 1 mps 637 mmHg 66%
12:00 +7°C° 0 mm 1 mps 637 mmHg 65%
13:00 +7°C° 0.1 mm 1 mps 636 mmHg 68%
14:00 +6°C° 0.1 mm 1 mps 635 mmHg 72%
15:00 +6°C° 0.1 mm 1 mps 635 mmHg 75%
16:00 +6°C° 0.1 mm 1 mps 635 mmHg 79%
17:00 +5°C° 0.1 mm 1 mps 634 mmHg 82%
18:00 +5°C° 0.1 mm 1 mps 634 mmHg 86%
19:00 +4°C° 0 mm 1 mps 634 mmHg 88%
20:00 +4°C° 0 mm 1 mps 634 mmHg 91%
21:00 +3°C° 0 mm 1 mps 634 mmHg 93%
22:00 +3°C° 0 mm 1 mps 634 mmHg 93%
23:00 +1°C° 0 mm 0 mps 633 mmHg 94%

Day after tomorrow, 8 March, Monday

Time Temperature Precipitation Wind Pressure Humidity
00:00 +1°C° 0 mm 0 mps 633 mmHg 94%
01:00 +1°C° 0 mm 0 mps 633 mmHg 94%
02:00 +1°C° 0 mm 0 mps 633 mmHg 94%
03:00 +1°C° 0 mm 0 mps 633 mmHg 94%
04:00 +1°C° 0.1 mm 0 mps 633 mmHg 94%
05:00 +2°C° 0.1 mm 1 mps 633 mmHg 94%
06:00 +2°C° 0.1 mm 1 mps 633 mmHg 95%
07:00 +2°C° 0.1 mm 1 mps 633 mmHg 92%
08:00 +3°C° 0.1 mm 1 mps 634 mmHg 89%
09:00 +3°C° 0.1 mm 1 mps 634 mmHg 86%
10:00 +4°C° 0.3 mm 1 mps 634 mmHg 87%
11:00 +4°C° 0.3 mm 1 mps 634 mmHg 87%
12:00 +3°C° 0.3 mm 2 mps 634 mmHg 87%
13:00 +3°C° 1.2 mm 1 mps 634 mmHg 90%
14:00 +3°C° 1.2 mm 1 mps 633 mmHg 92%
15:00 +2°C° 1.2 mm 1 mps 633 mmHg 94%
16:00 +2°C° 1.3 mm 1 mps 633 mmHg 95%
17:00 +2°C° 1.3 mm 1 mps 633 mmHg 95%
18:00 +2°C° 1.3 mm 1 mps 633 mmHg 95%
19:00 +2°C° 0.3 mm 1 mps 633 mmHg 95%
20:00 +2°C° 0.3 mm 1 mps 634 mmHg 95%
21:00 +2°C° 0.3 mm 1 mps 634 mmHg 95%
22:00 +2°C° 0.1 mm 1 mps 634 mmHg 94%
23:00 +2°C° 0.1 mm 1 mps 635 mmHg 94%

9 March, Tuesday

Time Temperature Precipitation Wind Pressure Humidity
00:00 +1°C° 0.1 mm 1 mps 635 mmHg 94%
01:00 +1°C° 0.1 mm 1 mps 634 mmHg 93%
02:00 +1°C° 0.1 mm 1 mps 634 mmHg 93%
03:00 +1°C° 0.1 mm 1 mps 634 mmHg 93%
04:00 +1°C° 0 mm 1 mps 634 mmHg 92%
05:00 0°C° 0 mm 1 mps 634 mmHg 92%
06:00 0°C° 0 mm 1 mps 634 mmHg 91%
07:00 -1°C° 0 mm 2 mps 634 mmHg 88%
08:00 -1°C° 0 mm 2 mps 635 mmHg 85%
09:00 +1°C° 0 mm 2 mps 635 mmHg 81%
10:00 0°C° 0 mm 3 mps 635 mmHg 78%
11:00 +1°C° 0 mm 3 mps 636 mmHg 75%
12:00 +2°C° 0 mm 3 mps 636 mmHg 71%
13:00 +2°C° 0 mm 3 mps 635 mmHg 69%
14:00 +3°C° 0 mm 3 mps 635 mmHg 67%
15:00 +3°C° 0 mm 3 mps 635 mmHg 65%
16:00 +2°C° 0 mm 3 mps 635 mmHg 68%
17:00 +1°C° 0 mm 3 mps 634 mmHg 70%
18:00 +1°C° 0 mm 2 mps 634 mmHg 72%
19:00 -1°C° 0 mm 2 mps 634 mmHg 75%
20:00 0°C° 0 mm 1 mps 635 mmHg 78%
21:00 -1°C° 0 mm 1 mps 635 mmHg 81%
22:00 -1°C° 0 mm 1 mps 635 mmHg 80%
23:00 -1°C° 0 mm 1 mps 635 mmHg 78%

10 March, Wednesday

Time Temperature Precipitation Wind Pressure Humidity
00:00 -1°C° 0 mm 1 mps 635 mmHg 76%
01:00 -1°C° 0 mm 1 mps 635 mmHg 75%
02:00 -1°C° 0 mm 1 mps 635 mmHg 75%
03:00 -1°C° 0 mm 1 mps 635 mmHg 74%
04:00 -2°C° 0 mm 1 mps 636 mmHg 73%
05:00 -2°C° 0 mm 1 mps 636 mmHg 72%
06:00 -2°C° 0 mm 1 mps 636 mmHg 71%
07:00 0°C° 0 mm 1 mps 637 mmHg 62%
08:00 +2°C° 0 mm 1 mps 638 mmHg 53%
09:00 +3°C° 0 mm 2 mps 639 mmHg 45%
10:00 +4°C° 0 mm 2 mps 639 mmHg 41%
11:00 +6°C° 0 mm 2 mps 639 mmHg 37%
12:00 +7°C° 0 mm 2 mps 640 mmHg 33%
13:00 +8°C° 0 mm 2 mps 640 mmHg 33%
14:00 +8°C° 0 mm 2 mps 640 mmHg 34%
15:00 +9°C° 0 mm 2 mps 640 mmHg 34%
16:00 +7°C° 0 mm 2 mps 639 mmHg 40%
17:00 +5°C° 0 mm 2 mps 639 mmHg 45%
18:00 +5°C° 0 mm 1 mps 638 mmHg 50%
19:00 +4°C° 0 mm 1 mps 638 mmHg 51%
20:00 +4°C° 0 mm 1 mps 639 mmHg 52%
21:00 +3°C° 0 mm 1 mps 639 mmHg 53%
22:00 +3°C° 0 mm 1 mps 639 mmHg 55%
23:00 +3°C° 0 mm 1 mps 639 mmHg 56%

11 March, Thursday

Time Temperature Precipitation Wind Pressure Humidity
00:00 +3°C° 0 mm 1 mps 639 mmHg 58%
01:00 +3°C° 0 mm 1 mps 639 mmHg 61%
02:00 +2°C° 0 mm 1 mps 638 mmHg 63%
03:00 +2°C° 0 mm 1 mps 638 mmHg 66%
04:00 +2°C° 0 mm 1 mps 638 mmHg 67%
05:00 +2°C° 0 mm 1 mps 638 mmHg 67%
06:00 +2°C° 0 mm 1 mps 638 mmHg 67%
07:00 +4°C° 0 mm 1 mps 639 mmHg 61%
08:00 +7°C° 0 mm 1 mps 640 mmHg 54%
09:00 +9°C° 0 mm 1 mps 641 mmHg 48%
10:00 +9°C° 0 mm 2 mps 641 mmHg 45%
11:00 +10°C° 0 mm 2 mps 642 mmHg 43%
12:00 +12°C° 0 mm 2 mps 642 mmHg 40%
13:00 +13°C° 0 mm 2 mps 642 mmHg 40%
14:00 +13°C° 0 mm 2 mps 641 mmHg 39%
15:00 +13°C° 0 mm 3 mps 641 mmHg 38%
16:00 +12°C° 0 mm 2 mps 641 mmHg 44%
17:00 +10°C° 0 mm 2 mps 640 mmHg 51%
18:00 +8°C° 0 mm 2 mps 639 mmHg 57%
19:00 +8°C° 0 mm 1 mps 639 mmHg 60%
20:00 +7°C° 0 mm 1 mps 639 mmHg 64%
21:00 +6°C° 0 mm 1 mps 639 mmHg 68%
22:00 +6°C° 0 mm 1 mps 639 mmHg 69%
23:00 +6°C° 0 mm 1 mps 639 mmHg 69%
Show more